Flag for France Weather past 2 weeks in Périgueux, France

Now
68 °F

Clear.


Feels Like: 68 °F
Forecast: 58 / 75 °F
Wind: 6 mph from Northwest

Location: Bergerac Airport

Current Time: Aug 1, 2014 at 10:43:46 AM

Latest Report: Aug 1, 2014 at 10:00 AM


Visibility: N/A

Pressure: 29.89 "Hg

Humidity: 83%

Dew point: 63 °F

Location of PérigueuxLocation

Historic Weather in Périgueux — Graph

°F

Périgueux temperature yesterday

Maximum temperature yesterday: 82 °F (at 5:30 PM)
Minimum temperature yesterday: 54 °F (at 6:30 AM)
Average temperature yesterday: 69 °F

Past Weeks' High & Low Weather Summary

 TemperatureHumidityPressure
High97 °F (Jul 17, 4:30 PM)100% (Jul 20, 2:00 AM)30.18 "Hg (Jul 20, 2:00 AM)
Low54 °F (Jul 29, 4:00 AM)26% (Jul 17, 5:00 PM)29.71 "Hg (Jul 18, 9:00 PM)
Average71 °F78%29.97 "Hg
* Reported Jul 17 9:00 AM — Aug 1 9:30 AM, Périgueux, Weather by CustomWeather, © 2014

Note: Actual official high and low records may vary slightly from our data, if they occured in-between our weather recording intervals... More about our weather records

Advertising

Périgueux weather history for previous 24 hours

 ConditionsComfort  
Time TempWeatherWind HumidityBarometerVisibility
9:30 AM
Aug 1
66 °FClear.2 mph88%29.89 "HgN/A
9:00 AM64 °FClear.1 mph88%29.89 "HgN/A
8:30 AM63 °FClear.1 mph94%29.89 "HgN/A
8:00 AM59 °FClear.2 mph100%29.89 "HgN/A
7:30 AM59 °FClear.5 mph94%29.89 "HgN/A
7:00 AM55 °FFog.1 mph100%29.89 "Hg3 mi
6:30 AM57 °FFog.No wind94%29.89 "Hg0 mi
5:30 AM57 °FFog.No wind94%29.89 "Hg0 mi
5:00 AM57 °FFog.No wind100%29.89 "Hg3 mi
4:30 AM59 °FFog.No wind94%29.89 "Hg3 mi
4:00 AM59 °FFog.No wind94%29.92 "Hg3 mi
3:30 AM59 °FClear.No wind94%29.92 "HgN/A
3:00 AM61 °FClear.1 mph94%29.92 "HgN/A
2:30 AM61 °FClear.2 mph94%29.92 "HgN/A
2:00 AM63 °FClear.3 mph88%29.92 "HgN/A
1:30 AM63 °FClear.5 mph88%29.92 "HgN/A
1:00 AM64 °FClear.5 mph83%29.92 "HgN/A
12:30 AM64 °FClear.5 mph83%29.95 "HgN/A
12:00 AM66 °FClear.6 mph83%29.92 "HgN/A
11:30 PM
Jul 31
66 °FClear.7 mph83%29.95 "HgN/A
11:00 PM64 °FClear.5 mph88%29.92 "HgN/A
10:30 PM66 °FClear.No wind83%29.92 "HgN/A
10:00 PM68 °FClear.No wind78%29.92 "HgN/A
9:30 PM72 °FClear.3 mph69%29.92 "HgN/A
9:00 PM75 °FClear.6 mph61%29.92 "HgN/A
8:30 PM77 °FClear.6 mph57%29.92 "HgN/A
8:00 PM79 °FClear.7 mph51%29.92 "HgN/A
7:30 PM81 °FClear.8 mph51%29.92 "HgN/A
7:00 PM81 °FClear.7 mph48%29.92 "HgN/A
6:30 PM81 °FClear.7 mph51%29.92 "HgN/A
6:00 PM82 °FClear.9 mph48%29.92 "HgN/A
5:30 PM82 °FClear.6 mph45%29.92 "HgN/A
5:00 PM81 °FClear.3 mph51%29.95 "HgN/A
4:30 PM81 °FClear.7 mph51%29.95 "HgN/A
4:00 PM79 °FClear.6 mph54%29.95 "HgN/A
3:30 PM81 °FClear.6 mph51%29.95 "HgN/A
3:00 PM79 °FClear.8 mph58%29.95 "HgN/A
2:30 PM79 °FClear.6 mph54%29.95 "HgN/A
2:00 PM79 °FPartly sunny.7 mph54%29.98 "HgN/A
1:30 PM81 °FPassing clouds.2 mph51%29.98 "HgN/A
1:00 PM81 °FClear.2 mph51%29.98 "HgN/A
12:30 PM79 °FClear.2 mph58%29.98 "HgN/A
12:00 PM75 °FClear.3 mph65%29.98 "HgN/A
11:30 AM75 °FClear.2 mph65%30.01 "HgN/A
11:00 AM73 °FClear.No wind74%30.01 "HgN/A
10:30 AM72 °FClear.2 mph78%30.01 "HgN/A
10:00 AM70 °FClear.1 mph78%30.01 "HgN/A
Weather by CustomWeather, © 2014

See weather overviewHow to use our weather pages